sat.trackr.live / text

‹ back to catalog

POLYITAN-1

NORAD 40042 · 2014-033AJ

PAYLOAD ACTIVE UNKNOWN

§ Identity

Operator
Country
UKR
Launch date
2014-06-19
Launch site
DLS
Launch vehicle
Mass (kg)
RCS (m²)
0.07

Purposes: tech_demo

External: N2YO · Heavens-Above · Gunter

§ Orbital elements

Epoch: 2026-05-25T00:11:45.925152Z

Period
93.97 min
Inclination
98.0965°
Eccentricity
0.0006324
Mean motion
15.32332554 rev/d
Perigee alt
464.5 km
Apogee alt
473.2 km
Semi-major
6,847.0 km
B*
5.4638e-4
RAAN
169.0919°
Arg perigee
214.9424°
Mean anomaly
145.1402°
Rev number
65,004

§ Raw data

POLYITAN-11 40042U 14033AJ  26145.00817043  .00016998  00000+0  54638-3 0  99932 40042  98.0965 169.0919 0006324 214.9424 145.1402 15.32332554650040

JSON: /api/v1/satellites/40042 · /tle

For live sub-satellite position, see the globe view (requires WebGL).

§ Visibility from observer

Set your observer location to see the next 7 days of passes ≥ 10°. The values pass through the URL so the page stays shareable.

No JS? Fill the form by hand. The geolocation button needs JavaScript.

§ Radio — SatNOGS DB

ModeDescriptionDownlinkUplink
FSK 9k6 FSK TLM 437.675 MHz
FSK PE0SAT - 9k6 FSK TLM (inactive) 437.676 MHz

2 transmitters · refreshed weekly from db.satnogs.org